IBE05LG LEMD-LPPR

Flight info

Callsign IBE05LG
Flight time 0h 46m
Altitude 31000
Route BARDI DCT RIVRO DCT PESUL
Aircraft A320/M-SDE3FGHIRWY/LB1

Departure

Time 2026-05-07 21:01
Airport Adolfo Suárez Madrid–Barajas Airport (LEMD)

Arrival

Time 2026-05-07 21:47
Airport Francisco de Sá Carneiro Airport (LPPR)
Time Latitude Longitude Altitude Speed Heading
2026-05-07 20:46 40.49121 -3.58964 2032 ft 0 kts 271°
2026-05-07 20:50 40.49120 -3.58937 2031 ft 4 kts 276°
2026-05-07 20:50 40.49115 -3.58903 2027 ft 4 kts 296°
2026-05-07 20:50 40.49100 -3.58881 2033 ft 4 kts 352°
2026-05-07 20:51 40.49096 -3.58880 2032 ft 0 kts
2026-05-07 20:54 40.49106 -3.58880 2033 ft 6 kts
2026-05-07 20:54 40.49147 -3.58880 2028 ft 5 kts
2026-05-07 20:55 40.49179 -3.58880 2022 ft 4 kts
2026-05-07 20:55 40.49202 -3.58880 2022 ft 3 kts
2026-05-07 20:55 40.49217 -3.58876 2022 ft 2 kts 19°
2026-05-07 20:55 40.49231 -3.58856 2027 ft 5 kts 53°
2026-05-07 20:56 40.49237 -3.58817 2025 ft 4 kts 88°
2026-05-07 20:56 40.49238 -3.58788 2025 ft 3 kts 88°
2026-05-07 20:56 40.49237 -3.58733 2025 ft 8 kts 91°
2026-05-07 20:56 40.49236 -3.58668 2029 ft 7 kts 90°
2026-05-07 20:57 40.49240 -3.58552 2017 ft 18 kts 88°
2026-05-07 20:57 40.49241 -3.58366 2011 ft 23 kts 89°
2026-05-07 20:57 40.49242 -3.58134 2005 ft 28 kts 89°
2026-05-07 20:57 40.49244 -3.57888 1997 ft 26 kts 89°
2026-05-07 20:58 40.49245 -3.57662 1988 ft 19 kts 84°
2026-05-07 20:58 40.49276 -3.57555 1988 ft 12 kts 59°
2026-05-07 20:58 40.49329 -3.57471 1985 ft 13 kts 34°
2026-05-07 20:58 40.49402 -3.57449 1984 ft 9 kts 350°
2026-05-07 20:59 40.49417 -3.57451 1985 ft 0 kts 356°
2026-05-07 21:01 40.49493 -3.57454 1984 ft 44 kts
2026-05-07 21:01 40.50064 -3.57458 1987 ft 116 kts 359°
2026-05-07 21:01 40.51068 -3.57469 1999 ft 170 kts 360°
2026-05-07 21:01 40.52294 -3.57468 2602 ft 176 kts 359°
2026-05-07 21:02 40.53519 -3.57491 3397 ft 176 kts 359°
2026-05-07 21:02 40.54738 -3.57517 4178 ft 174 kts 356°
2026-05-07 21:02 40.55865 -3.58034 4835 ft 174 kts 322°
2026-05-07 21:02 40.56613 -3.59283 5380 ft 180 kts 296°
2026-05-07 21:03 40.57351 -3.60721 5653 ft 202 kts 317°
2026-05-07 21:03 40.58451 -3.62017 5947 ft 221 kts 319°
2026-05-07 21:03 40.59654 -3.63325 6539 ft 227 kts 321°
2026-05-07 21:03 40.60897 -3.64623 7355 ft 229 kts 322°
2026-05-07 21:04 40.62154 -3.65929 8156 ft 231 kts 321°
2026-05-07 21:04 40.63249 -3.67487 8926 ft 235 kts 302°
2026-05-07 21:04 40.63904 -3.69483 9542 ft 247 kts 282°
2026-05-07 21:04 40.64024 -3.71840 9901 ft 271 kts 268°
2026-05-07 21:05 40.63973 -3.74409 10281 ft 292 kts 268°
2026-05-07 21:05 40.63919 -3.77194 10609 ft 315 kts 268°
2026-05-07 21:05 40.63867 -3.80123 11246 ft 324 kts 269°
2026-05-07 21:05 40.63816 -3.83113 12016 ft 329 kts 269°
2026-05-07 21:06 40.63766 -3.86144 12774 ft 333 kts 269°
2026-05-07 21:06 40.63717 -3.89210 13506 ft 337 kts 269°
2026-05-07 21:06 40.63668 -3.92309 14201 ft 341 kts 269°
2026-05-07 21:06 40.63617 -3.95447 14898 ft 345 kts 269°
2026-05-07 21:07 40.63564 -3.98625 15586 ft 348 kts 269°
2026-05-07 21:07 40.63506 -4.01820 16263 ft 351 kts 269°
2026-05-07 21:07 40.63450 -4.05043 16919 ft 354 kts 269°
2026-05-07 21:07 40.63391 -4.08300 17559 ft 357 kts 269°
2026-05-07 21:08 40.63332 -4.11593 18173 ft 361 kts 269°
2026-05-07 21:08 40.63271 -4.14918 18750 ft 365 kts 268°
2026-05-07 21:08 40.63207 -4.18280 19311 ft 370 kts 268°
2026-05-07 21:08 40.63144 -4.21675 19880 ft 373 kts 268°
2026-05-07 21:09 40.63077 -4.25105 20457 ft 376 kts 268°
2026-05-07 21:09 40.63008 -4.28551 21010 ft 379 kts 268°
2026-05-07 21:09 40.62939 -4.32037 21539 ft 382 kts 268°
2026-05-07 21:09 40.62871 -4.35553 22036 ft 386 kts 268°
2026-05-07 21:10 40.62802 -4.39099 22530 ft 389 kts 268°
2026-05-07 21:10 40.62727 -4.42667 23029 ft 392 kts 268°
2026-05-07 21:10 40.62650 -4.46262 23509 ft 394 kts 268°
2026-05-07 21:10 40.62544 -4.49876 23967 ft 397 kts 264°
2026-05-07 21:11 40.62054 -4.53415 24402 ft 400 kts 254°
2026-05-07 21:11 40.61069 -4.56840 24844 ft 402 kts 244°
2026-05-07 21:11 40.57919 -4.63011 25699 ft 407 kts 233°
2026-05-07 21:12 40.56239 -4.65961 26111 ft 409 kts 233°
2026-05-07 21:12 40.54526 -4.68970 26500 ft 412 kts 233°
2026-05-07 21:12 40.52804 -4.71997 26887 ft 415 kts 233°
2026-05-07 21:12 40.51069 -4.75040 27257 ft 417 kts 233°
2026-05-07 21:13 40.49324 -4.78098 27616 ft 420 kts 233°
2026-05-07 21:13 40.47570 -4.81185 27963 ft 423 kts 235°
2026-05-07 21:13 40.46108 -4.84539 28340 ft 424 kts 246°
2026-05-07 21:13 40.45146 -4.88203 28697 ft 426 kts 257°
2026-05-07 21:14 40.44690 -4.92060 29014 ft 429 kts 266°
2026-05-07 21:14 40.44753 -4.95981 29350 ft 431 kts 276°
2026-05-07 21:14 40.45167 -4.99892 29668 ft 434 kts 278°
2026-05-07 21:14 40.45590 -5.03823 29991 ft 436 kts 278°
2026-05-07 21:15 40.46008 -5.07777 30303 ft 438 kts 278°
2026-05-07 21:15 40.46425 -5.11753 30590 ft 441 kts 278°
2026-05-07 21:15 40.46844 -5.15750 30868 ft 443 kts 278°
2026-05-07 21:15 40.47264 -5.19757 30987 ft 441 kts 278°
2026-05-07 21:16 40.47673 -5.23669 31008 ft 424 kts 278°
2026-05-07 21:16 40.48068 -5.27444 31009 ft 412 kts 278°
2026-05-07 21:16 40.48835 -5.34833 31009 ft 406 kts 277°
2026-05-07 21:17 40.49597 -5.42162 31009 ft 405 kts 278°
2026-05-07 21:17 40.50351 -5.49443 31009 ft 405 kts 277°
2026-05-07 21:18 40.51102 -5.56775 31009 ft 404 kts 277°
2026-05-07 21:18 40.51845 -5.64092 31006 ft 404 kts 277°
2026-05-07 21:19 40.52589 -5.71414 31003 ft 404 kts 277°
2026-05-07 21:19 40.53320 -5.78733 31002 ft 404 kts 277°
2026-05-07 21:20 40.54051 -5.86062 31004 ft 404 kts 277°
2026-05-07 21:20 40.54778 -5.93386 31004 ft 404 kts 277°
2026-05-07 21:21 40.55497 -6.00704 31003 ft 403 kts 277°
2026-05-07 21:21 40.56210 -6.08022 30995 ft 404 kts 277°
2026-05-07 21:22 40.56919 -6.15353 30998 ft 404 kts 277°
2026-05-07 21:22 40.57272 -6.19009 30876 ft 401 kts 277°
2026-05-07 21:22 40.57620 -6.22628 30616 ft 397 kts 277°
2026-05-07 21:23 40.57964 -6.26217 30383 ft 394 kts 277°
2026-05-07 21:23 40.58308 -6.29788 30130 ft 392 kts 277°
2026-05-07 21:23 40.58652 -6.33334 29880 ft 390 kts 277°
2026-05-07 21:23 40.58992 -6.36867 29633 ft 388 kts 277°
2026-05-07 21:24 40.59327 -6.40389 29379 ft 387 kts 277°
2026-05-07 21:24 40.59657 -6.43893 29129 ft 385 kts 277°
2026-05-07 21:24 40.59983 -6.47380 28879 ft 383 kts 277°
2026-05-07 21:24 40.60303 -6.50847 28629 ft 381 kts 277°
2026-05-07 21:25 40.60619 -6.54304 28379 ft 380 kts 277°
2026-05-07 21:25 40.60934 -6.57746 28126 ft 378 kts 277°
2026-05-07 21:25 40.61250 -6.61173 27878 ft 376 kts 277°
2026-05-07 21:25 40.61567 -6.64580 27626 ft 375 kts 277°
2026-05-07 21:26 40.61883 -6.67982 27382 ft 374 kts 277°
2026-05-07 21:26 40.62199 -6.71372 27128 ft 372 kts 278°
2026-05-07 21:26 40.62743 -6.74694 26877 ft 371 kts 284°
2026-05-07 21:26 40.63382 -6.77970 26627 ft 370 kts 284°
2026-05-07 21:27 40.64015 -6.81247 26375 ft 368 kts 284°
2026-05-07 21:27 40.64639 -6.84509 26126 ft 367 kts 284°
2026-05-07 21:27 40.65253 -6.87720 25877 ft 366 kts 284°
2026-05-07 21:27 40.65873 -6.90960 25623 ft 364 kts 284°
2026-05-07 21:28 40.66488 -6.94183 25363 ft 362 kts 284°
2026-05-07 21:28 40.67099 -6.97388 25138 ft 361 kts 284°
2026-05-07 21:28 40.67707 -7.00592 24878 ft 360 kts 284°
2026-05-07 21:28 40.68314 -7.03782 24626 ft 358 kts 284°
2026-05-07 21:29 40.68915 -7.06957 24377 ft 357 kts 284°
2026-05-07 21:29 40.69514 -7.10120 24127 ft 355 kts 284°
2026-05-07 21:29 40.70111 -7.13276 23876 ft 354 kts 284°
2026-05-07 21:29 40.70702 -7.16412 23627 ft 353 kts 284°
2026-05-07 21:30 40.71292 -7.19554 23375 ft 351 kts 284°
2026-05-07 21:30 40.71873 -7.22667 23126 ft 349 kts 284°
2026-05-07 21:30 40.72454 -7.25769 22873 ft 348 kts 284°
2026-05-07 21:30 40.73032 -7.28859 22624 ft 347 kts 284°
2026-05-07 21:31 40.73619 -7.31935 22372 ft 345 kts 284°
2026-05-07 21:31 40.74218 -7.34997 22119 ft 344 kts 284°
2026-05-07 21:31 40.74822 -7.38040 21873 ft 343 kts 284°
2026-05-07 21:31 40.75430 -7.41082 21625 ft 342 kts 284°
2026-05-07 21:32 40.76031 -7.44104 21373 ft 341 kts 284°
2026-05-07 21:32 40.76630 -7.47128 21121 ft 339 kts 284°
2026-05-07 21:32 40.77222 -7.50134 20871 ft 338 kts 284°
2026-05-07 21:32 40.77810 -7.53122 20620 ft 336 kts 284°
2026-05-07 21:33 40.78397 -7.56102 20362 ft 335 kts 284°
2026-05-07 21:33 40.78979 -7.59076 20116 ft 334 kts 284°
2026-05-07 21:33 40.79556 -7.62035 19872 ft 332 kts 284°
2026-05-07 21:33 40.80129 -7.64984 19623 ft 331 kts 284°
2026-05-07 21:34 40.80697 -7.67899 19301 ft 326 kts 284°
2026-05-07 21:34 40.81261 -7.70794 18902 ft 325 kts 284°
2026-05-07 21:34 40.81819 -7.73674 18496 ft 324 kts 284°
2026-05-07 21:34 40.82375 -7.76550 18093 ft 323 kts 284°
2026-05-07 21:35 40.82929 -7.79419 17692 ft 322 kts 284°
2026-05-07 21:35 40.83481 -7.82282 17292 ft 321 kts 284°
2026-05-07 21:35 40.84031 -7.85142 16898 ft 321 kts 284°
2026-05-07 21:35 40.84578 -7.87989 16506 ft 320 kts 284°
2026-05-07 21:36 40.85123 -7.90836 16122 ft 319 kts 284°
2026-05-07 21:36 40.85668 -7.93671 15738 ft 318 kts 284°
2026-05-07 21:36 40.86211 -7.96497 15357 ft 317 kts 284°
2026-05-07 21:36 40.86751 -7.99312 14980 ft 316 kts 284°
2026-05-07 21:37 40.87288 -8.02128 14597 ft 315 kts 284°
2026-05-07 21:37 40.87817 -8.04898 14220 ft 314 kts 284°
2026-05-07 21:37 40.88351 -8.07690 13840 ft 314 kts 284°
2026-05-07 21:37 40.88881 -8.10476 13448 ft 312 kts 284°
2026-05-07 21:38 40.89410 -8.13263 13070 ft 311 kts 284°
2026-05-07 21:38 40.89935 -8.16032 12691 ft 310 kts 284°
2026-05-07 21:38 40.90458 -8.18792 12298 ft 309 kts 284°
2026-05-07 21:38 40.90978 -8.21534 11913 ft 308 kts 284°
2026-05-07 21:39 40.91494 -8.24274 11520 ft 307 kts 284°
2026-05-07 21:39 40.92007 -8.27002 11127 ft 305 kts 284°
2026-05-07 21:39 40.92518 -8.29721 10725 ft 304 kts 284°
2026-05-07 21:39 40.93028 -8.32423 10389 ft 298 kts 284°
2026-05-07 21:40 40.93511 -8.34985 10260 ft 278 kts 284°
2026-05-07 21:40 40.93977 -8.37451 9876 ft 278 kts 284°
2026-05-07 21:40 40.94450 -8.39964 9336 ft 285 kts 284°
2026-05-07 21:40 40.94931 -8.42525 8780 ft 290 kts 284°
2026-05-07 21:41 40.95420 -8.45130 8228 ft 293 kts 284°
2026-05-07 21:41 40.95912 -8.47760 7677 ft 296 kts 284°
2026-05-07 21:41 40.96408 -8.50423 7121 ft 299 kts 284°
2026-05-07 21:41 40.96907 -8.53097 6572 ft 301 kts 284°
2026-05-07 21:42 40.97409 -8.55791 6019 ft 302 kts 284°
2026-05-07 21:42 40.97933 -8.58479 5464 ft 302 kts 289°
2026-05-07 21:42 40.99051 -8.60784 5002 ft 298 kts 318°
2026-05-07 21:42 41.00830 -8.62018 4712 ft 288 kts 346°
2026-05-07 21:43 41.02781 -8.62460 4348 ft 282 kts 352°
2026-05-07 21:43 41.04680 -8.62865 3978 ft 268 kts 349°
2026-05-07 21:43 41.06456 -8.63322 3632 ft 252 kts 349°
2026-05-07 21:43 41.08106 -8.63753 3314 ft 238 kts 349°
2026-05-07 21:44 41.09709 -8.64170 3001 ft 226 kts 349°
2026-05-07 21:44 41.11196 -8.64555 2716 ft 215 kts 349°
2026-05-07 21:44 41.12671 -8.64939 2427 ft 210 kts 349°
2026-05-07 21:44 41.14073 -8.65303 2152 ft 201 kts 349°
2026-05-07 21:45 41.15412 -8.65653 1900 ft 191 kts 349°
2026-05-07 21:45 41.16669 -8.65984 1667 ft 178 kts 349°
2026-05-07 21:45 41.17846 -8.66289 1420 ft 167 kts 349°
2026-05-07 21:45 41.18591 -8.66483 1273 ft 162 kts 349°
2026-05-07 21:46 41.20006 -8.66862 995 ft 152 kts 348°
2026-05-07 21:46 41.21017 -8.67129 806 ft 145 kts 349°
2026-05-07 21:46 41.21997 -8.67384 579 ft 144 kts 349°
2026-05-07 21:46 41.22970 -8.67642 333 ft 141 kts 348°
2026-05-07 21:47 41.23923 -8.67886 239 ft 140 kts 350°
2026-05-07 21:47 41.24528 -8.68059 214 ft 119 kts 347°
2026-05-07 21:47 41.25344 -8.68264 178 ft 66 kts 349°
2026-05-07 21:47 41.25574 -8.68308 173 ft 13 kts 21°
2026-05-07 21:48 41.25609 -8.68250 171 ft 10 kts 75°
2026-05-07 21:48 41.25612 -8.68232 171 ft 1 kts 79°
2026-05-07 21:48 41.25615 -8.68208 170 ft 4 kts 83°
2026-05-07 21:48 41.25615 -8.68199 170 ft 0 kts 84°
2026-05-07 21:49 41.25616 -8.68189 170 ft 2 kts 87°
2026-05-07 21:49 41.25615 -8.68175 170 ft 1 kts 92°
2026-05-07 21:49 41.25615 -8.68167 170 ft 0 kts 95°
2026-05-07 21:50 41.25585 -8.68106 172 ft 11 kts 150°
2026-05-07 21:50 41.25524 -8.68084 174 ft 8 kts 167°
2026-05-07 21:50 41.25451 -8.68060 176 ft 13 kts 165°
2026-05-07 21:50 41.25355 -8.68038 179 ft 16 kts 169°
2026-05-07 21:51 41.25233 -8.68002 201 ft 20 kts 167°
2026-05-07 21:51 41.25096 -8.67969 195 ft 20 kts 170°
2026-05-07 21:51 41.24962 -8.67938 194 ft 20 kts 170°
2026-05-07 21:51 41.24840 -8.67891 205 ft 15 kts 156°
2026-05-07 21:52 41.24751 -8.67835 213 ft 17 kts 162°
2026-05-07 21:52 41.24607 -8.67799 214 ft 25 kts 176°
2026-05-07 21:52 41.24423 -8.67747 224 ft 27 kts 163°
2026-05-07 21:52 41.24278 -8.67648 233 ft 20 kts 132°
2026-05-07 21:53 41.24195 -8.67529 239 ft 16 kts 134°
2026-05-07 21:53 41.24109 -8.67448 242 ft 15 kts 159°
2026-05-07 21:53 41.24009 -8.67414 242 ft 15 kts 182°
2026-05-07 21:53 41.23921 -8.67487 239 ft 16 kts 204°
2026-05-07 21:54 41.23813 -8.67471 239 ft 16 kts 169°
2026-05-07 21:54 41.23725 -8.67404 240 ft 14 kts 116°
2026-05-07 21:54 41.23663 -8.67340 242 ft 10 kts 167°
2026-05-07 21:54 41.23588 -8.67342 241 ft 12 kts 199°
2026-05-07 21:55 41.23521 -8.67340 243 ft 7 kts 108°
2026-05-07 21:55 41.23511 -8.67298 245 ft 2 kts 113°
2026-05-07 21:55 41.23508 -8.67289 245 ft 2 kts 118°
2026-05-07 21:55 41.23505 -8.67282 245 ft 0 kts 118°